Weather in Stupino

Russia / Tula Oblast     53°08′09″N   38°31′08″E
temp.,
°C
wind,
m/s
gust,
m/s
humid.,
%
clouds,
%
prec.,
mm/h
press.,
hPa
HPBL,
m
19 january, wed
wed1900:00−10n81691100 0.1 1013464
03:00−12n6149385 0.1 1016355
06:00−13nnw6139486 0.0 1017286
09:00−16nnw4109769 0.0 1019156
12:00−13nnw369525 0.0 1019160
15:00−12nw359382 0.0 1019114
18:00−20w2210052 0.0 10209
21:00−21wsw2210077 0.0 102020
20 january, thu
thu2000:00−20sw349929 0.0 101842
03:00−17ssw379494 0.0 101897
06:00−13ssw4109689 0.0 1015179
09:00−12ssw5119792 0.0 1015215
12:00−9ssw6149496 0.1 1013373
15:00−8s61494100 0.1 1011420
18:00−9s71693100 0.0 1010384
21:00−9s71594100 0.1 1009398
21 january, fri
fri2100:00−8s71594100 0.1 1008460
03:00−7s71493100 0.2 1007453
06:00−6sse61395100 1.1 1005456
09:00−6sse61295100 2.7 1003485
12:00−4sse61396100 1.4 1002614
15:00−2ssw5893100 2.0 1000509
18:00−3sw6995100 1.1 1001555
21:00−9ssw49946 1.1 1003177
22 january, sat
sat2200:00−9s5129578 0.0 1004293
03:00−6s61294100 0.3 1004504
06:00−7s61193100 0.2 1005377
09:00−8sse5109487 0.3 1008297
12:00−8sse51094100 0.1 1010316
15:00−8sse4895100 0.1 1012284
18:00−11se389897 0.0 1014125
21:00−10se389776 0.1 1016172
23 january, sun
sun2300:00−17ese22100100 0.0 101917
03:00−18ese22100100 0.1 102112
06:00−19ene22100100 0.1 102319
09:00−19e2210096 0.1 102613
12:00−12ene229799 0.0 102790
15:00−12nne24965 0.1 102887
18:00−16ne369899 0.0 103075
21:00−15ne389899 0.0 1031114